#timestamp,LO_Frequency,Hit,StdDev 
1642215615.1,286046998.6,N
1642215635.9,286046999.2,N
1642215655.7,286046997.0,N
1642215675.5,286046999.3,N
1642215695.4,286046998.9,N
1642215715.2,286046996.8,N
1642215735.0,286046997.1,N
1642215735.9,286046997.1,N
1642215755.8,286046997.4,N
1642215775.6,286046997.9,N
1642215795.5,286046997.9,N
1642215815.3,286046997.8,N
1642215835.1,286046997.9,N
1642215855.9,286046997.3,N
1642215875.7,286046997.0,N
1642215895.5,286046998.6,N
1642215915.4,286046998.6,N
1642215935.2,286046998.4,N
1642215955.1,286046997.6,N
1642215956.0,286046997.6,N
1642215975.8,286046995.2,N
1642215995.6,286046994.9,N
1642216015.5,286046997.9,N
1642216035.3,286046997.8,N
1642216055.1,286046996.7,N
1642216075.9,286046997.1,N
1642216095.7,286046998.6,N
1642216115.6,286046998.3,N
1642216135.4,286046999.5,N
1642216155.2,286047001.2,N
1642216175.1,286047000.9,N
1642216176.0,286047000.9,N
1642216195.8,286047000.7,N
1642216215.6,286046999.4,N
1642216235.5,286046998.8,N
1642216255.3,286046999.0,N
1642216275.2,286046998.6,N
1642216295.9,286046998.7,N
1642216315.7,286046998.1,N
1642216335.6,286046999.7,N
1642216355.4,286047002.7,N
1642216375.3,286047002.3,N
1642216395.1,286047001.3,N
1642216396.0,286047001.3,N
1642216415.8,286047001.4,N
1642216435.7,286047000.1,N
1642216455.5,286046999.7,N
1642216475.3,286047002.7,N
1642216495.2,286047002.4,N
1642216515.0,286046998.9,N
1642216515.9,286046998.9,N
1642216535.8,286046998.3,N
1642216555.6,286046998.4,N
1642216575.4,286046996.9,N
1642216595.3,286046998.3,N
1642216615.1,286047000.6,N
1642216635.8,286047001.2,N
1642216655.7,286046998.8,N
1642216675.5,286046997.3,N
1642216695.4,286046996.8,N
1642216715.2,286046998.2,N
1642216735.0,286046998.1,N
1642216735.9,286046998.1,N
1642216755.8,286046998.5,N
1642216775.6,286047001.0,N
1642216795.5,286046998.7,N
1642216815.3,286047000.4,N
1642216835.1,286046998.2,N
1642216855.9,286047000.1,N
1642216875.7,286047001.0,N
1642216895.5,286046999.1,N
1642216915.4,286046998.4,N
1642216935.2,286046997.1,N
1642216955.1,286046996.7,N
1642216956.0,286046996.7,N
1642216975.8,286046997.4,N
1642216995.6,286046998.9,N
1642217015.5,286046998.7,N
1642217035.3,286047000.9,N
1642217055.2,286046998.4,N
1642217075.9,286046994.9,Y
1642217095.6,286046998.9,P
1642217115.5,286046998.4,P
1642217135.3,286046999.1,P
1642217155.2,286046998.8,Y
1642217175.9,286047000.8,P
1642217195.7,286046998.3,N
1642217215.6,286046998.5,N
1642217235.4,286047001.1,N
1642217255.3,286047000.6,N
1642217275.1,286047000.8,N
1642217276.0,286047000.8,N
1642217295.8,286046999.8,N
1642217315.7,286046999.9,N
1642217335.5,286047001.0,N
1642217355.3,286046996.6,Y
1642217375.2,286046998.5,P
1642217395.0,286047000.5,N
1642217395.9,286047000.5,N
1642217415.8,286047001.1,N
1642217435.6,286046999.0,N
1642217455.4,286047002.8,Y
1642217475.3,286047000.7,P
1642217495.1,286046999.8,N
1642217515.8,286046998.3,P
1642217535.7,286046999.1,N
1642217555.5,286046997.2,Y
1642217575.4,286046998.9,P
1642217595.2,286046999.4,N
1642217615.0,286046999.5,N
1642217615.9,286046999.5,N
1642217635.8,286046998.5,Y
1642217655.6,286047002.2,P
1642217675.5,286047002.1,N
1642217695.3,286047002.0,N
1642217715.1,286047004.2,Y
1642217735.9,286047000.2,P
1642217755.7,286047000.4,N
1642217775.6,286046998.2,P
1642217795.4,286047002.6,N
1642217815.2,286047002.3,N
1642217835.1,286047001.8,N
1642217836.0,286047001.8,N
1642217855.8,286047004.1,Y
1642217875.7,286047002.8,P
1642217895.5,286047000.9,N
1642217915.3,286046999.5,N
1642217935.2,286046999.3,N
1642217955.0,286046998.3,N
1642217955.9,286046998.3,N
1642217975.7,286047000.8,N
1642217995.6,286046999.9,N
1642218015.4,286047002.0,N
1642218035.3,286047002.8,N
1642218055.1,286047000.3,N
1642218056.0,286047000.3,N
1642218075.8,286046998.3,N
1642218095.7,286047000.4,N
1642218115.5,286047002.8,N
1642218135.3,286046998.1,N
1642218155.2,286046997.0,N
1642218175.0,286046997.7,N
1642218175.9,286046997.7,N
1642218195.8,286046996.8,N
1642218215.6,286046997.1,N
1642218235.4,286046997.2,N
1642218255.3,286046997.7,N
1642218275.1,286046998.6,N
1642218295.8,286046996.6,N
1642218315.7,286046997.1,N
1642218335.5,286046997.6,N
1642218355.4,286046993.3,Y
1642218375.2,286046995.4,P
1642218395.0,286046999.1,N
1642218395.9,286046999.1,N
1642218415.8,286046998.4,N
1642218435.6,286046996.5,N
1642218455.5,286046998.8,N
1642218475.3,286046998.8,N
1642218495.1,286046998.7,N
1642218515.9,286046999.4,N
1642218535.7,286046994.9,Y
1642218555.5,286046996.7,P
1642218575.4,286046996.9,P
1642218595.2,286046998.2,N
1642218615.1,286047000.6,N
1642218616.0,286047000.6,N
1642218635.8,286047002.4,N
1642218655.6,286047000.2,N
1642218675.5,286047004.4,N
1642218695.3,286047002.6,N
1642218715.1,286047001.4,N
1642218735.9,286047003.5,N
1642218755.7,286046999.8,N
1642218775.6,286046998.1,N
1642218795.4,286047000.7,N
1642218815.2,286047001.9,N
1642218835.1,286047000.0,N
1642218836.0,286047000.0,N
1642218855.8,286047000.4,N
1642218875.6,286047001.1,N
1642218895.5,286047000.5,N
1642218915.3,286047002.7,N
1642218935.2,286047000.1,N
1642218955.0,286047001.6,N
1642218955.9,286047001.6,N
1642218975.7,286046999.8,N
1642218995.6,286046998.8,N
1642219015.4,286047000.5,N
1642219035.3,286047000.2,N
1642219055.1,286047002.2,N
1642219056.0,286047002.2,N
1642219075.8,286047003.0,N
1642219095.7,286047004.9,N
1642219115.5,286047006.0,Y
1642219135.4,286047002.2,P
1642219155.2,286047001.6,N
1642219175.0,286046999.8,N
1642219175.9,286046999.8,N
1642219195.8,286047002.0,N
